GEFSMA_prec_meanprecacc_180.txt.gz
Total_Precipitation_Accumulation
0.98 0.90 0.91 1.06 1.02 1.03 1.17 1.27 1.12 1.04 1.04 0.99 0.94 0.90 0.86 0.79 0.79 0.76 0.94 1.05 1.20 1.57 1.98 1.95 1.63 1.25 1.22 1.46 1.50 1.53 1.54 1.64 1.91 2.04 1.93 1.83 1.87 1.90 1.66 1.38 1.15 1.02 0.94
1.03 1.05 0.95 1.03 1.18 1.21 1.19 1.19 1.16 1.06 1.02 1.05 1.00 1.02 1.00 0.85 0.82 0.84 0.94 0.94 0.98 1.19 1.66 1.97 1.79 1.51 1.46 1.56 1.51 1.55 1.52 1.55 1.76 1.91 2.00 1.87 1.93 2.03 1.69 1.34 1.22 1.13 1.10
1.04 1.06 0.94 0.98 1.13 1.32 1.29 1.22 1.15 1.12 0.97 0.93 1.01 1.08 1.09 0.99 0.97 1.02 0.98 0.95 0.87 0.98 1.31 1.78 1.89 1.71 1.69 1.83 1.63 1.52 1.44 1.42 1.46 1.67 1.91 1.88 1.82 1.87 1.61 1.34 1.17 1.18 1.22
1.05 1.13 1.05 1.01 1.16 1.35 1.50 1.54 1.36 1.26 1.14 1.06 1.13 1.14 1.10 1.16 1.14 1.08 1.04 1.07 1.05 0.93 1.02 1.27 1.55 1.84 1.91 2.00 1.79 1.63 1.46 1.29 1.24 1.36 1.52 1.65 1.67 1.64 1.58 1.47 1.33 1.26 1.29
0.97 1.18 1.26 1.22 1.25 1.41 1.46 1.47 1.46 1.33 1.31 1.26 1.15 1.11 1.07 1.16 1.24 1.06 1.03 1.09 1.20 1.15 1.06 0.91 0.98 1.20 1.53 2.02 2.10 1.78 1.61 1.40 1.23 1.25 1.31 1.35 1.46 1.49 1.53 1.49 1.35 1.26 1.33
1.19 1.34 1.43 1.43 1.44 1.49 1.47 1.58 1.75 1.55 1.37 1.38 1.26 1.14 1.08 1.09 1.14 1.13 1.13 1.12 1.21 1.20 1.12 0.96 0.89 0.73 0.92 1.48 1.97 1.82 1.78 1.64 1.35 1.24 1.29 1.24 1.25 1.34 1.33 1.40 1.42 1.31 1.32
1.42 1.55 1.66 1.69 1.62 1.53 1.58 1.75 2.10 1.98 1.62 1.46 1.49 1.37 1.21 1.15 1.19 1.15 1.18 1.26 1.20 1.17 1.23 1.14 0.96 0.87 0.75 0.79 1.22 1.67 1.75 1.81 1.64 1.42 1.32 1.29 1.21 1.24 1.20 1.19 1.36 1.37 1.32
1.51 1.59 1.80 1.91 1.84 1.81 1.92 1.94 2.16 2.29 2.03 1.81 1.80 1.97 1.75 1.55 1.23 1.00 1.05 1.11 1.13 1.21 1.22 1.26 1.15 1.00 0.95 0.85 0.71 1.08 1.43 1.64 1.77 1.64 1.51 1.41 1.27 1.19 1.17 1.14 1.20 1.44 1.41
1.70 1.68 1.80 2.01 1.97 1.92 1.96 2.14 2.42 2.68 2.58 2.33 2.13 2.24 1.99 1.76 1.64 1.16 0.94 1.00 1.08 1.20 1.24 1.33 1.32 1.19 1.13 1.14 0.92 0.77 0.95 1.26 1.69 1.81 1.74 1.55 1.40 1.28 1.26 1.23 1.19 1.37 1.60
1.64 1.63 1.75 1.96 2.10 2.17 2.22 2.28 2.29 2.62 2.81 2.64 2.52 2.22 1.95 1.81 1.91 1.67 1.20 0.98 1.03 1.08 1.15 1.19 1.30 1.33 1.29 1.25 1.14 0.77 0.70 0.92 1.49 2.04 2.11 1.82 1.56 1.41 1.33 1.34 1.28 1.31 1.48
1.73 1.64 1.68 1.76 1.81 1.88 2.00 2.13 2.21 2.42 2.56 2.69 2.67 2.48 2.25 2.09 1.67 1.65 1.65 1.40 1.15 0.95 0.99 1.12 1.31 1.36 1.35 1.28 1.29 0.93 0.71 0.60 0.86 1.50 1.99 2.12 1.94 1.73 1.56 1.41 1.32 1.31 1.33
1.71 1.62 1.56 1.65 1.68 1.69 1.81 1.93 2.03 2.25 2.42 2.53 2.59 2.48 2.35 2.28 2.03 1.79 1.61 1.58 1.47 1.17 0.99 1.01 1.11 1.22 1.29 1.28 1.17 1.11 0.87 0.62 0.58 0.84 1.25 1.72 1.96 1.92 1.82 1.66 1.54 1.43 1.43
1.33 1.33 1.25 1.31 1.45 1.50 1.68 1.75 1.69 1.74 1.91 2.11 2.29 2.32 2.29 2.19 2.17 2.09 1.93 1.77 1.57 1.24 1.12 1.00 0.96 1.11 1.17 1.28 1.27 1.33 0.96 0.74 0.63 0.64 0.79 1.06 1.36 1.57 1.73 1.81 1.87 1.84 1.81
1.02 0.98 0.98 1.00 1.07 1.15 1.37 1.57 1.54 1.56 1.63 1.71 1.81 2.06 2.15 2.11 2.14 1.98 1.85 1.88 1.68 1.42 1.23 1.00 0.88 0.92 0.98 1.10 1.41 1.49 1.00 0.86 0.71 0.69 0.73 0.76 0.88 1.02 1.27 1.56 1.75 1.91 2.00
0.79 0.76 0.79 0.88 0.93 0.93 1.03 1.16 1.34 1.42 1.48 1.56 1.58 1.74 1.83 1.89 1.89 1.75 1.77 1.83 1.71 1.45 1.29 1.14 1.03 0.95 0.93 0.98 1.27 1.20 1.03 0.98 0.88 0.81 0.76 0.73 0.73 0.75 0.88 1.06 1.23 1.39 1.49
0.71 0.70 0.68 0.69 0.75 0.77 0.87 0.98 1.04 1.15 1.22 1.38 1.55 1.68 1.69 1.73 1.77 1.68 1.66 1.79 1.78 1.54 1.31 1.13 1.00 0.94 1.04 1.01 1.19 1.06 1.13 1.22 0.95 0.82 0.77 0.78 0.71 0.64 0.59 0.65 0.78 0.90 0.96
0.55 0.56 0.59 0.65 0.65 0.67 0.69 0.70 0.75 0.81 0.89 0.99 1.07 1.20 1.40 1.58 1.64 1.64 1.69 1.76 1.79 1.65 1.39 1.25 1.03 1.01 1.15 1.16 1.15 1.08 1.15 1.21 0.99 0.87 0.74 0.70 0.70 0.65 0.63 0.58 0.60 0.65 0.72
0.47 0.49 0.54 0.58 0.58 0.64 0.66 0.66 0.66 0.68 0.77 0.85 0.86 0.88 0.98 1.20 1.36 1.50 1.58 1.61 1.67 1.66 1.52 1.48 1.36 1.12 1.08 1.15 1.28 1.35 1.27 1.24 1.20 1.17 1.02 0.82 0.73 0.69 0.67 0.63 0.57 0.54 0.55
0.59 0.62 0.61 0.64 0.62 0.64 0.64 0.65 0.68 0.70 0.72 0.77 0.80 0.82 0.88 0.97 1.14 1.23 1.34 1.45 1.53 1.65 1.64 1.47 1.48 1.40 1.22 1.20 1.26 1.34 1.39 1.47 1.36 1.30 1.35 1.17 0.95 0.84 0.78 0.72 0.64 0.59 0.58
0.51 0.54 0.63 0.71 0.79 0.83 0.82 0.78 0.77 0.75 0.70 0.72 0.79 0.86 0.88 0.88 1.00 1.21 1.34 1.41 1.45 1.56 1.69 1.63 1.55 1.51 1.36 1.29 1.29 1.32 1.45 1.55 1.55 1.35 1.26 1.22 1.15 1.02 0.89 0.81 0.74 0.69 0.68
0.44 0.45 0.53 0.62 0.72 0.81 0.86 0.86 0.72 0.61 0.62 0.67 0.68 0.69 0.77 0.84 0.87 1.02 1.19 1.42 1.43 1.55 1.63 1.71 1.63 1.47 1.35 1.27 1.23 1.23 1.33 1.53 1.59 1.57 1.48 1.29 1.17 1.00 0.88 0.84 0.83 0.81 0.76
0.38 0.40 0.44 0.42 0.45 0.50 0.66 0.66 0.55 0.45 0.50 0.60 0.68 0.70 0.70 0.71 0.74 0.78 0.82 1.07 1.25 1.37 1.48 1.52 1.58 1.46 1.34 1.26 1.33 1.34 1.29 1.34 1.45 1.47 1.35 1.41 1.37 1.19 1.04 0.92 0.97 1.03 0.99
0.34 0.36 0.32 0.28 0.30 0.34 0.39 0.38 0.44 0.45 0.48 0.52 0.61 0.70 0.75 0.73 0.78 0.87 0.84 0.87 0.96 1.03 1.16 1.29 1.34 1.31 1.29 1.25 1.33 1.35 1.31 1.25 1.17 1.25 1.25 1.31 1.37 1.27 1.13 1.03 1.03 1.01 0.99
0.29 0.37 0.32 0.30 0.33 0.30 0.32 0.37 0.40 0.43 0.56 0.62 0.61 0.62 0.73 0.79 0.85 1.00 0.99 1.06 1.00 0.89 0.88 0.93 1.08 1.15 1.11 1.21 1.30 1.47 1.52 1.38 1.28 1.31 1.28 1.20 1.16 1.12 1.06 1.06 1.06 0.93 0.88
0.21 0.20 0.24 0.39 0.39 0.35 0.43 0.41 0.35 0.42 0.55 0.62 0.58 0.61 0.73 0.83 0.97 1.08 1.13 1.16 1.05 0.95 0.98 1.06 1.14 1.21 1.23 1.30 1.36 1.43 1.48 1.47 1.38 1.36 1.27 1.13 1.04 1.03 1.03 1.01 0.99 0.99 0.93
0.12 0.12 0.16 0.29 0.36 0.37 0.37 0.28 0.28 0.41 0.53 0.61 0.62 0.64 0.85 0.86 0.94 1.00 1.06 1.18 1.20 1.06 0.98 1.01 1.06 1.09 1.08 1.17 1.36 1.38 1.48 1.56 1.43 1.35 1.26 1.13 1.09 1.17 1.22 1.09 0.96 0.91 0.89

GEFSMA_prec_meanprecacc_186.txt.gz
Total_Precipitation_Accumulation
0.99 0.91 0.92 1.06 1.02 1.04 1.18 1.28 1.14 1.05 1.06 1.01 0.96 0.93 0.90 0.84 0.84 0.81 1.02 1.15 1.34 1.73 2.15 2.11 1.76 1.33 1.29 1.53 1.57 1.61 1.62 1.73 2.00 2.12 2.03 1.98 2.03 2.04 1.75 1.44 1.19 1.06 0.98
1.03 1.06 0.97 1.04 1.18 1.22 1.20 1.20 1.17 1.08 1.04 1.07 1.02 1.05 1.05 0.91 0.91 0.90 1.00 1.02 1.05 1.30 1.80 2.14 1.95 1.62 1.56 1.63 1.57 1.63 1.61 1.68 1.88 2.02 2.11 1.97 2.04 2.12 1.76 1.39 1.27 1.18 1.15
1.04 1.06 0.95 0.99 1.13 1.32 1.30 1.23 1.16 1.14 0.99 0.95 1.03 1.12 1.15 1.07 1.05 1.07 1.03 1.01 0.94 1.05 1.41 1.88 2.00 1.85 1.81 1.90 1.69 1.62 1.63 1.72 1.65 1.77 2.00 1.98 1.91 1.93 1.66 1.39 1.23 1.26 1.29
1.05 1.14 1.06 1.01 1.17 1.36 1.51 1.55 1.37 1.28 1.16 1.08 1.15 1.17 1.13 1.19 1.18 1.14 1.10 1.13 1.11 0.99 1.08 1.31 1.61 1.91 2.02 2.11 1.87 1.68 1.52 1.37 1.31 1.41 1.58 1.72 1.75 1.71 1.64 1.53 1.38 1.31 1.34
0.97 1.18 1.26 1.22 1.26 1.42 1.47 1.48 1.47 1.35 1.33 1.28 1.17 1.13 1.09 1.20 1.28 1.11 1.08 1.12 1.23 1.19 1.11 0.94 1.03 1.24 1.59 2.11 2.21 1.85 1.66 1.45 1.27 1.29 1.36 1.39 1.51 1.56 1.61 1.57 1.42 1.31 1.36
1.19 1.34 1.44 1.43 1.44 1.50 1.48 1.59 1.76 1.57 1.40 1.40 1.27 1.15 1.09 1.13 1.19 1.18 1.17 1.15 1.24 1.23 1.16 0.99 0.93 0.76 0.96 1.53 2.04 1.89 1.86 1.72 1.40 1.29 1.32 1.27 1.28 1.39 1.41 1.48 1.49 1.37 1.36
1.42 1.55 1.66 1.69 1.62 1.53 1.59 1.76 2.11 2.00 1.64 1.48 1.50 1.37 1.22 1.16 1.22 1.17 1.20 1.29 1.23 1.19 1.25 1.17 1.00 0.89 0.77 0.83 1.27 1.72 1.82 1.89 1.70 1.46 1.35 1.33 1.23 1.26 1.24 1.25 1.43 1.44 1.38
1.52 1.59 1.80 1.91 1.85 1.82 1.92 1.94 2.17 2.30 2.04 1.83 1.82 1.99 1.77 1.56 1.24 1.02 1.06 1.12 1.15 1.22 1.23 1.26 1.16 1.01 0.96 0.87 0.73 1.11 1.48 1.68 1.82 1.69 1.54 1.43 1.29 1.23 1.21 1.18 1.26 1.50 1.47
1.71 1.68 1.81 2.01 1.97 1.92 1.96 2.15 2.43 2.70 2.60 2.35 2.14 2.27 2.02 1.78 1.66 1.17 0.96 1.01 1.09 1.21 1.24 1.33 1.32 1.19 1.13 1.16 0.94 0.79 0.97 1.29 1.73 1.85 1.77 1.58 1.44 1.33 1.31 1.28 1.24 1.41 1.64
1.64 1.63 1.76 1.97 2.11 2.18 2.23 2.29 2.30 2.63 2.84 2.67 2.54 2.24 1.96 1.82 1.93 1.70 1.22 1.00 1.05 1.09 1.16 1.19 1.30 1.34 1.29 1.26 1.17 0.80 0.72 0.94 1.54 2.10 2.17 1.86 1.61 1.45 1.37 1.37 1.32 1.37 1.53
1.73 1.64 1.69 1.77 1.81 1.89 2.01 2.14 2.22 2.43 2.58 2.72 2.70 2.50 2.25 2.10 1.68 1.66 1.66 1.42 1.17 0.96 0.99 1.13 1.32 1.37 1.36 1.29 1.30 0.96 0.72 0.62 0.90 1.56 2.05 2.17 2.01 1.79 1.60 1.45 1.36 1.35 1.37
1.71 1.62 1.56 1.66 1.68 1.69 1.82 1.93 2.03 2.25 2.43 2.54 2.61 2.49 2.36 2.30 2.05 1.81 1.63 1.62 1.48 1.17 1.00 1.01 1.11 1.23 1.30 1.29 1.19 1.13 0.90 0.65 0.61 0.87 1.28 1.76 2.02 2.00 1.88 1.71 1.58 1.46 1.46
1.33 1.33 1.25 1.31 1.45 1.50 1.69 1.76 1.70 1.74 1.92 2.13 2.30 2.33 2.30 2.21 2.18 2.10 1.95 1.81 1.59 1.25 1.13 1.00 0.96 1.11 1.18 1.30 1.29 1.36 1.00 0.77 0.67 0.67 0.82 1.09 1.39 1.61 1.77 1.87 1.92 1.88 1.84
1.02 0.98 0.98 1.00 1.07 1.16 1.38 1.58 1.55 1.56 1.63 1.73 1.82 2.06 2.16 2.11 2.14 1.99 1.86 1.89 1.70 1.43 1.23 1.01 0.89 0.93 1.00 1.12 1.42 1.52 1.01 0.87 0.72 0.70 0.76 0.80 0.92 1.04 1.29 1.58 1.78 1.94 2.04
0.79 0.76 0.79 0.88 0.94 0.93 1.04 1.17 1.34 1.42 1.48 1.56 1.59 1.74 1.83 1.90 1.89 1.75 1.78 1.84 1.72 1.46 1.30 1.15 1.04 0.95 0.94 0.99 1.28 1.21 1.03 0.98 0.88 0.82 0.78 0.76 0.76 0.78 0.90 1.08 1.25 1.40 1.51
0.71 0.70 0.68 0.69 0.75 0.77 0.87 0.98 1.04 1.15 1.22 1.38 1.56 1.68 1.70 1.73 1.77 1.68 1.66 1.80 1.79 1.56 1.32 1.13 1.00 0.96 1.05 1.02 1.20 1.07 1.14 1.22 0.96 0.83 0.79 0.79 0.73 0.66 0.61 0.66 0.78 0.90 0.97
0.55 0.56 0.59 0.65 0.65 0.67 0.69 0.71 0.76 0.82 0.89 0.99 1.07 1.20 1.41 1.59 1.64 1.64 1.69 1.76 1.81 1.66 1.40 1.25 1.03 1.01 1.16 1.17 1.16 1.09 1.17 1.22 1.00 0.88 0.75 0.72 0.72 0.67 0.64 0.59 0.60 0.65 0.72
0.47 0.49 0.54 0.58 0.58 0.64 0.66 0.66 0.66 0.68 0.77 0.85 0.86 0.88 0.99 1.21 1.37 1.50 1.58 1.61 1.68 1.67 1.52 1.48 1.37 1.13 1.09 1.16 1.29 1.36 1.28 1.24 1.20 1.17 1.03 0.83 0.74 0.70 0.67 0.63 0.57 0.54 0.55
0.59 0.62 0.61 0.64 0.62 0.64 0.64 0.65 0.68 0.70 0.72 0.77 0.80 0.82 0.89 0.98 1.14 1.23 1.34 1.45 1.53 1.66 1.65 1.48 1.49 1.41 1.23 1.20 1.26 1.35 1.40 1.49 1.37 1.31 1.35 1.17 0.95 0.84 0.78 0.72 0.64 0.59 0.58
0.51 0.54 0.63 0.71 0.79 0.83 0.82 0.78 0.77 0.75 0.70 0.72 0.79 0.86 0.88 0.88 1.00 1.21 1.34 1.42 1.45 1.57 1.69 1.64 1.56 1.52 1.38 1.30 1.30 1.33 1.46 1.56 1.57 1.37 1.27 1.22 1.15 1.02 0.89 0.82 0.74 0.69 0.68
0.44 0.45 0.53 0.62 0.72 0.81 0.86 0.86 0.72 0.61 0.62 0.67 0.68 0.69 0.77 0.84 0.87 1.02 1.19 1.42 1.45 1.56 1.64 1.72 1.64 1.48 1.37 1.30 1.25 1.25 1.34 1.54 1.59 1.57 1.48 1.29 1.17 1.00 0.88 0.85 0.83 0.82 0.77
0.38 0.40 0.44 0.42 0.45 0.50 0.66 0.66 0.55 0.45 0.50 0.60 0.68 0.70 0.70 0.71 0.74 0.78 0.82 1.07 1.26 1.38 1.49 1.52 1.58 1.47 1.35 1.29 1.36 1.36 1.31 1.35 1.46 1.48 1.36 1.42 1.38 1.20 1.05 0.92 0.98 1.03 1.00
0.34 0.36 0.32 0.28 0.30 0.34 0.39 0.38 0.44 0.45 0.48 0.53 0.61 0.70 0.75 0.73 0.78 0.88 0.84 0.87 0.97 1.03 1.16 1.29 1.34 1.31 1.29 1.25 1.34 1.39 1.35 1.28 1.19 1.28 1.27 1.33 1.39 1.28 1.14 1.03 1.04 1.01 0.99
0.30 0.37 0.32 0.30 0.33 0.30 0.32 0.37 0.41 0.43 0.56 0.62 0.61 0.62 0.73 0.79 0.85 1.01 1.00 1.07 1.00 0.90 0.88 0.94 1.09 1.15 1.11 1.21 1.30 1.47 1.54 1.40 1.30 1.32 1.29 1.21 1.17 1.14 1.06 1.06 1.06 0.93 0.88
0.21 0.20 0.24 0.39 0.39 0.36 0.43 0.41 0.35 0.42 0.55 0.62 0.58 0.62 0.73 0.83 0.97 1.08 1.13 1.16 1.05 0.95 0.98 1.06 1.14 1.21 1.23 1.30 1.36 1.43 1.48 1.47 1.39 1.36 1.27 1.14 1.05 1.03 1.04 1.01 0.99 0.99 0.94
0.12 0.13 0.17 0.30 0.37 0.38 0.38 0.29 0.29 0.41 0.53 0.61 0.63 0.64 0.85 0.86 0.94 1.00 1.06 1.18 1.20 1.06 0.99 1.01 1.06 1.09 1.08 1.17 1.36 1.38 1.48 1.56 1.43 1.35 1.26 1.14 1.10 1.18 1.23 1.09 0.96 0.91 0.90

GEFSMA_prec_meanprecacc_192.txt.gz
Total_Precipitation_Accumulation
1.01 0.92 0.93 1.07 1.05 1.07 1.23 1.33 1.19 1.12 1.12 1.05 1.00 0.97 0.94 0.88 0.88 0.87 1.08 1.21 1.41 1.83 2.23 2.19 1.85 1.45 1.37 1.59 1.64 1.67 1.68 1.79 2.04 2.19 2.22 2.25 2.15 2.12 1.85 1.51 1.25 1.10 1.02
1.04 1.07 0.97 1.04 1.19 1.24 1.23 1.23 1.20 1.12 1.08 1.11 1.08 1.12 1.11 0.96 0.97 0.96 1.05 1.06 1.10 1.36 1.91 2.26 2.06 1.73 1.65 1.70 1.65 1.71 1.69 1.74 1.92 2.10 2.31 2.36 2.29 2.27 1.89 1.49 1.34 1.24 1.21
1.05 1.06 0.96 0.99 1.14 1.33 1.31 1.25 1.17 1.17 1.02 0.99 1.09 1.18 1.20 1.13 1.11 1.12 1.07 1.06 0.98 1.08 1.46 1.97 2.11 1.95 1.91 2.00 1.80 1.74 1.77 1.94 1.83 1.94 2.25 2.35 2.27 2.17 1.80 1.49 1.30 1.33 1.35
1.05 1.14 1.07 1.02 1.17 1.36 1.52 1.56 1.39 1.32 1.21 1.13 1.19 1.20 1.17 1.23 1.23 1.19 1.14 1.18 1.17 1.02 1.11 1.36 1.67 1.97 2.10 2.20 1.96 1.78 1.63 1.51 1.48 1.60 1.81 2.02 2.07 1.96 1.79 1.62 1.45 1.37 1.40
0.99 1.19 1.27 1.23 1.26 1.42 1.48 1.48 1.49 1.39 1.37 1.31 1.19 1.15 1.12 1.22 1.32 1.15 1.12 1.16 1.27 1.22 1.13 0.97 1.07 1.27 1.65 2.20 2.29 1.93 1.74 1.52 1.32 1.34 1.47 1.59 1.74 1.78 1.76 1.68 1.50 1.38 1.42
1.20 1.35 1.45 1.44 1.44 1.51 1.49 1.60 1.79 1.60 1.44 1.43 1.29 1.17 1.12 1.16 1.21 1.21 1.21 1.19 1.26 1.25 1.18 1.00 0.96 0.81 0.99 1.58 2.09 1.95 1.92 1.77 1.45 1.32 1.38 1.38 1.42 1.55 1.56 1.62 1.61 1.46 1.42
1.43 1.56 1.66 1.69 1.63 1.55 1.61 1.77 2.13 2.02 1.66 1.50 1.53 1.39 1.24 1.18 1.23 1.19 1.23 1.32 1.25 1.21 1.28 1.18 1.01 0.90 0.79 0.84 1.29 1.74 1.86 1.95 1.74 1.49 1.38 1.37 1.32 1.38 1.37 1.38 1.54 1.53 1.45
1.52 1.59 1.80 1.92 1.85 1.83 1.93 1.96 2.19 2.34 2.07 1.87 1.87 2.03 1.80 1.58 1.25 1.02 1.07 1.14 1.17 1.24 1.25 1.28 1.18 1.02 0.97 0.88 0.74 1.13 1.51 1.73 1.87 1.73 1.56 1.45 1.32 1.29 1.31 1.29 1.36 1.59 1.55
1.72 1.69 1.81 2.01 1.98 1.94 1.99 2.17 2.46 2.74 2.65 2.39 2.19 2.33 2.08 1.82 1.69 1.19 0.96 1.02 1.11 1.22 1.25 1.34 1.33 1.21 1.14 1.17 0.95 0.80 0.98 1.31 1.77 1.89 1.80 1.60 1.45 1.36 1.36 1.35 1.33 1.51 1.71
1.64 1.65 1.78 1.98 2.13 2.20 2.26 2.31 2.33 2.67 2.89 2.71 2.58 2.28 2.00 1.85 1.96 1.72 1.23 1.00 1.06 1.10 1.17 1.20 1.31 1.35 1.30 1.27 1.18 0.81 0.72 0.95 1.57 2.15 2.20 1.90 1.63 1.47 1.40 1.41 1.37 1.43 1.59
1.74 1.65 1.70 1.78 1.83 1.92 2.04 2.16 2.24 2.46 2.63 2.76 2.74 2.54 2.29 2.13 1.71 1.69 1.68 1.43 1.18 0.97 1.00 1.14 1.33 1.38 1.38 1.30 1.32 0.98 0.74 0.63 0.92 1.59 2.08 2.21 2.04 1.83 1.64 1.48 1.38 1.37 1.41
1.72 1.62 1.56 1.66 1.69 1.70 1.83 1.94 2.04 2.28 2.46 2.57 2.64 2.53 2.41 2.34 2.09 1.84 1.66 1.63 1.49 1.18 1.01 1.02 1.12 1.24 1.31 1.30 1.19 1.15 0.92 0.67 0.63 0.88 1.29 1.78 2.05 2.03 1.93 1.76 1.62 1.50 1.50
1.34 1.34 1.26 1.32 1.45 1.50 1.69 1.76 1.70 1.75 1.94 2.15 2.34 2.36 2.33 2.23 2.20 2.13 1.98 1.82 1.60 1.26 1.14 1.01 0.97 1.12 1.19 1.31 1.30 1.38 1.02 0.79 0.68 0.68 0.83 1.10 1.39 1.62 1.79 1.89 1.96 1.94 1.90
1.02 0.98 0.98 1.00 1.07 1.16 1.38 1.59 1.55 1.57 1.64 1.74 1.84 2.08 2.18 2.12 2.15 2.00 1.88 1.91 1.71 1.44 1.24 1.02 0.91 0.94 1.01 1.13 1.44 1.53 1.03 0.89 0.73 0.71 0.77 0.81 0.92 1.04 1.30 1.59 1.80 1.97 2.08
0.79 0.76 0.79 0.88 0.94 0.93 1.04 1.17 1.34 1.42 1.49 1.57 1.60 1.75 1.85 1.91 1.89 1.76 1.78 1.85 1.74 1.48 1.31 1.16 1.06 0.98 0.96 1.00 1.29 1.22 1.05 1.01 0.90 0.83 0.78 0.77 0.77 0.78 0.91 1.08 1.26 1.41 1.53
0.71 0.70 0.68 0.69 0.75 0.77 0.87 0.98 1.04 1.15 1.22 1.38 1.56 1.69 1.71 1.74 1.77 1.69 1.67 1.81 1.79 1.57 1.33 1.15 1.03 0.99 1.07 1.03 1.21 1.08 1.15 1.23 0.97 0.84 0.79 0.80 0.74 0.67 0.61 0.66 0.79 0.91 0.98
0.55 0.56 0.59 0.65 0.65 0.67 0.69 0.71 0.76 0.82 0.89 0.99 1.07 1.20 1.41 1.59 1.65 1.65 1.71 1.77 1.82 1.68 1.42 1.28 1.07 1.06 1.19 1.17 1.17 1.10 1.18 1.23 1.01 0.89 0.76 0.72 0.72 0.67 0.65 0.60 0.60 0.66 0.73
0.47 0.49 0.54 0.58 0.58 0.64 0.66 0.66 0.66 0.68 0.77 0.85 0.86 0.88 0.99 1.21 1.38 1.51 1.60 1.62 1.69 1.68 1.54 1.51 1.43 1.19 1.12 1.16 1.29 1.36 1.29 1.26 1.22 1.18 1.05 0.84 0.75 0.70 0.67 0.64 0.58 0.54 0.56
0.59 0.62 0.61 0.64 0.62 0.64 0.64 0.65 0.68 0.70 0.72 0.77 0.80 0.82 0.89 0.98 1.14 1.24 1.35 1.46 1.54 1.67 1.66 1.49 1.53 1.45 1.24 1.21 1.27 1.35 1.41 1.49 1.38 1.32 1.37 1.18 0.96 0.85 0.78 0.72 0.64 0.59 0.58
0.51 0.54 0.63 0.71 0.79 0.83 0.82 0.79 0.78 0.75 0.70 0.72 0.79 0.86 0.88 0.88 1.00 1.21 1.34 1.42 1.46 1.57 1.70 1.64 1.58 1.54 1.38 1.31 1.31 1.34 1.46 1.56 1.57 1.37 1.27 1.23 1.15 1.02 0.89 0.82 0.74 0.69 0.68
0.44 0.45 0.53 0.62 0.72 0.81 0.86 0.87 0.73 0.62 0.62 0.67 0.68 0.69 0.77 0.84 0.87 1.03 1.19 1.42 1.45 1.57 1.65 1.72 1.65 1.49 1.38 1.31 1.26 1.26 1.35 1.55 1.60 1.57 1.48 1.29 1.17 1.00 0.88 0.85 0.83 0.82 0.77
0.38 0.40 0.44 0.42 0.45 0.50 0.66 0.66 0.55 0.45 0.50 0.60 0.68 0.70 0.70 0.71 0.74 0.78 0.82 1.07 1.26 1.39 1.49 1.52 1.58 1.47 1.35 1.29 1.37 1.38 1.32 1.37 1.48 1.50 1.37 1.42 1.38 1.20 1.05 0.92 0.98 1.03 1.00
0.35 0.37 0.32 0.28 0.30 0.34 0.39 0.38 0.44 0.46 0.48 0.53 0.61 0.70 0.75 0.73 0.78 0.88 0.84 0.87 0.97 1.03 1.16 1.29 1.35 1.31 1.29 1.26 1.35 1.39 1.36 1.29 1.21 1.31 1.29 1.35 1.41 1.29 1.15 1.04 1.04 1.02 1.00
0.31 0.38 0.33 0.30 0.34 0.30 0.32 0.37 0.41 0.43 0.56 0.62 0.62 0.62 0.74 0.79 0.85 1.01 1.00 1.07 1.00 0.90 0.88 0.94 1.09 1.15 1.11 1.21 1.30 1.48 1.54 1.41 1.30 1.33 1.31 1.23 1.20 1.16 1.08 1.07 1.07 0.94 0.89
0.24 0.22 0.25 0.40 0.40 0.36 0.43 0.41 0.36 0.43 0.55 0.62 0.58 0.62 0.73 0.83 0.97 1.08 1.13 1.16 1.05 0.95 0.98 1.06 1.14 1.21 1.23 1.30 1.36 1.43 1.48 1.47 1.39 1.37 1.28 1.15 1.06 1.06 1.06 1.03 1.00 1.00 0.94
0.15 0.15 0.18 0.31 0.37 0.38 0.39 0.30 0.30 0.42 0.54 0.62 0.63 0.64 0.85 0.86 0.95 1.00 1.06 1.18 1.20 1.06 0.99 1.02 1.07 1.09 1.09 1.17 1.36 1.38 1.48 1.57 1.43 1.36 1.26 1.14 1.10 1.19 1.24 1.10 0.97 0.93 0.91

GEFSMA_prec_meanprecacc_198.txt.gz
Total_Precipitation_Accumulation
1.02 0.93 0.94 1.08 1.06 1.09 1.25 1.36 1.21 1.15 1.16 1.08 1.02 1.00 0.98 0.90 0.90 0.88 1.10 1.25 1.45 1.88 2.30 2.29 1.98 1.56 1.44 1.63 1.67 1.70 1.71 1.82 2.07 2.22 2.26 2.29 2.19 2.16 1.89 1.55 1.28 1.14 1.07
1.05 1.07 0.98 1.05 1.20 1.25 1.25 1.26 1.23 1.16 1.12 1.14 1.11 1.15 1.14 0.97 0.98 0.98 1.06 1.08 1.12 1.39 1.95 2.33 2.13 1.77 1.68 1.72 1.67 1.73 1.73 1.77 1.96 2.14 2.36 2.41 2.35 2.31 1.93 1.53 1.38 1.28 1.25
1.06 1.07 0.96 1.00 1.15 1.34 1.32 1.26 1.20 1.21 1.07 1.04 1.14 1.23 1.23 1.15 1.13 1.14 1.09 1.08 0.99 1.11 1.50 2.04 2.21 2.03 1.97 2.04 1.84 1.78 1.82 1.98 1.88 2.00 2.31 2.44 2.38 2.22 1.84 1.53 1.34 1.36 1.39
1.06 1.15 1.08 1.03 1.19 1.38 1.53 1.57 1.41 1.35 1.25 1.18 1.24 1.24 1.21 1.28 1.26 1.22 1.16 1.19 1.18 1.04 1.12 1.39 1.75 2.07 2.20 2.30 2.07 1.91 1.74 1.62 1.57 1.68 1.89 2.20 2.32 2.05 1.84 1.66 1.48 1.40 1.44
1.00 1.20 1.28 1.23 1.27 1.43 1.49 1.49 1.51 1.42 1.40 1.34 1.22 1.18 1.16 1.28 1.36 1.19 1.15 1.18 1.28 1.24 1.14 0.98 1.09 1.32 1.74 2.31 2.42 2.03 1.83 1.61 1.40 1.42 1.55 1.79 2.07 1.98 1.85 1.72 1.54 1.40 1.44
1.22 1.37 1.46 1.44 1.44 1.51 1.49 1.61 1.79 1.62 1.45 1.45 1.32 1.19 1.14 1.19 1.25 1.25 1.24 1.21 1.28 1.25 1.18 1.01 0.97 0.83 1.04 1.63 2.13 1.99 1.97 1.83 1.51 1.37 1.43 1.53 1.70 1.82 1.69 1.68 1.67 1.51 1.47
1.43 1.56 1.66 1.69 1.63 1.55 1.61 1.78 2.14 2.03 1.67 1.51 1.55 1.41 1.25 1.20 1.26 1.21 1.25 1.34 1.27 1.22 1.29 1.20 1.02 0.92 0.80 0.86 1.30 1.77 1.90 2.01 1.80 1.53 1.43 1.48 1.53 1.64 1.58 1.50 1.63 1.61 1.52
1.53 1.60 1.81 1.92 1.86 1.84 1.94 1.97 2.20 2.35 2.08 1.88 1.88 2.04 1.81 1.59 1.26 1.03 1.08 1.16 1.18 1.25 1.26 1.29 1.18 1.02 0.97 0.89 0.74 1.13 1.53 1.77 1.92 1.78 1.61 1.52 1.47 1.50 1.51 1.44 1.47 1.68 1.63
1.72 1.70 1.81 2.01 1.98 1.94 1.99 2.17 2.46 2.75 2.66 2.40 2.20 2.34 2.09 1.82 1.69 1.19 0.96 1.02 1.12 1.24 1.28 1.36 1.34 1.21 1.15 1.17 0.96 0.80 0.99 1.33 1.81 1.95 1.86 1.65 1.53 1.48 1.49 1.47 1.44 1.60 1.81
1.65 1.65 1.78 1.98 2.13 2.21 2.26 2.32 2.33 2.68 2.90 2.72 2.58 2.29 2.00 1.86 1.97 1.73 1.24 1.00 1.07 1.13 1.20 1.23 1.33 1.35 1.31 1.27 1.18 0.81 0.72 0.95 1.60 2.18 2.24 1.95 1.70 1.53 1.48 1.51 1.47 1.53 1.70
1.74 1.66 1.71 1.78 1.83 1.92 2.04 2.16 2.24 2.47 2.63 2.76 2.74 2.55 2.29 2.13 1.72 1.69 1.69 1.44 1.19 0.98 1.01 1.15 1.34 1.39 1.38 1.30 1.32 0.98 0.75 0.64 0.93 1.62 2.12 2.26 2.09 1.88 1.70 1.55 1.45 1.46 1.50
1.72 1.63 1.57 1.66 1.69 1.70 1.84 1.95 2.04 2.28 2.46 2.57 2.64 2.54 2.42 2.36 2.11 1.85 1.68 1.64 1.50 1.18 1.01 1.02 1.13 1.24 1.31 1.30 1.20 1.17 0.93 0.68 0.64 0.90 1.32 1.81 2.08 2.06 1.96 1.80 1.67 1.55 1.56
1.35 1.34 1.26 1.32 1.45 1.51 1.70 1.77 1.71 1.76 1.95 2.16 2.34 2.36 2.34 2.25 2.21 2.14 1.99 1.83 1.60 1.26 1.14 1.01 0.98 1.13 1.19 1.31 1.31 1.40 1.03 0.80 0.69 0.70 0.84 1.11 1.40 1.63 1.81 1.92 1.99 1.98 1.96
1.02 0.99 0.98 1.00 1.07 1.16 1.38 1.59 1.57 1.58 1.65 1.75 1.84 2.08 2.19 2.13 2.16 2.00 1.88 1.91 1.71 1.44 1.25 1.02 0.91 0.95 1.01 1.14 1.45 1.55 1.04 0.90 0.74 0.72 0.78 0.82 0.93 1.05 1.30 1.60 1.81 1.98 2.10
0.79 0.76 0.79 0.88 0.94 0.94 1.04 1.17 1.35 1.42 1.49 1.57 1.60 1.76 1.86 1.92 1.90 1.77 1.79 1.85 1.74 1.48 1.31 1.17 1.07 0.99 0.97 1.02 1.31 1.24 1.06 1.01 0.91 0.84 0.79 0.77 0.78 0.79 0.91 1.09 1.26 1.42 1.53
0.71 0.70 0.68 0.69 0.75 0.78 0.87 0.98 1.04 1.15 1.23 1.38 1.56 1.70 1.72 1.74 1.78 1.70 1.68 1.81 1.80 1.57 1.34 1.16 1.04 1.01 1.09 1.06 1.23 1.10 1.16 1.24 0.97 0.85 0.79 0.80 0.74 0.67 0.62 0.67 0.80 0.91 0.99
0.55 0.56 0.59 0.65 0.65 0.67 0.69 0.71 0.77 0.83 0.89 0.99 1.07 1.20 1.41 1.59 1.65 1.66 1.71 1.77 1.82 1.68 1.42 1.28 1.07 1.08 1.24 1.20 1.19 1.12 1.19 1.24 1.02 0.90 0.77 0.73 0.73 0.68 0.65 0.60 0.61 0.67 0.74
0.47 0.49 0.54 0.58 0.58 0.64 0.66 0.66 0.66 0.69 0.78 0.85 0.86 0.88 0.99 1.21 1.38 1.51 1.60 1.62 1.69 1.68 1.54 1.52 1.43 1.22 1.20 1.19 1.31 1.37 1.30 1.26 1.22 1.19 1.05 0.84 0.75 0.71 0.68 0.65 0.59 0.55 0.56
0.59 0.62 0.61 0.64 0.62 0.64 0.64 0.65 0.68 0.70 0.72 0.77 0.80 0.82 0.89 0.98 1.15 1.24 1.35 1.46 1.54 1.67 1.66 1.49 1.54 1.48 1.27 1.24 1.28 1.36 1.41 1.50 1.38 1.32 1.37 1.19 0.97 0.86 0.79 0.73 0.65 0.60 0.58
0.52 0.55 0.63 0.71 0.79 0.83 0.82 0.79 0.78 0.76 0.71 0.72 0.79 0.86 0.88 0.88 1.00 1.21 1.34 1.42 1.46 1.57 1.70 1.64 1.58 1.55 1.39 1.32 1.32 1.35 1.47 1.57 1.57 1.37 1.28 1.23 1.16 1.03 0.90 0.83 0.75 0.70 0.69
0.45 0.46 0.54 0.63 0.73 0.81 0.87 0.87 0.73 0.62 0.62 0.67 0.68 0.69 0.77 0.84 0.87 1.03 1.19 1.43 1.45 1.57 1.65 1.72 1.66 1.51 1.38 1.31 1.28 1.27 1.36 1.56 1.61 1.58 1.48 1.29 1.17 1.01 0.89 0.86 0.85 0.83 0.77
0.40 0.41 0.45 0.43 0.46 0.50 0.67 0.67 0.56 0.45 0.51 0.61 0.68 0.70 0.70 0.71 0.74 0.78 0.82 1.07 1.26 1.39 1.50 1.53 1.59 1.47 1.36 1.30 1.38 1.39 1.33 1.38 1.49 1.51 1.38 1.43 1.39 1.20 1.05 0.93 0.99 1.04 1.00
0.36 0.38 0.33 0.29 0.31 0.35 0.40 0.39 0.45 0.46 0.48 0.53 0.62 0.71 0.75 0.73 0.79 0.88 0.84 0.87 0.97 1.04 1.17 1.29 1.35 1.31 1.30 1.26 1.35 1.39 1.37 1.29 1.22 1.31 1.30 1.36 1.42 1.31 1.16 1.05 1.05 1.02 1.00
0.32 0.39 0.34 0.31 0.34 0.31 0.34 0.38 0.42 0.44 0.57 0.63 0.62 0.63 0.74 0.80 0.85 1.01 1.00 1.07 1.00 0.90 0.88 0.94 1.09 1.15 1.11 1.21 1.31 1.48 1.54 1.41 1.31 1.33 1.31 1.24 1.21 1.18 1.09 1.08 1.09 0.95 0.90
0.27 0.24 0.28 0.42 0.42 0.37 0.45 0.43 0.37 0.44 0.56 0.63 0.59 0.62 0.74 0.84 0.98 1.09 1.14 1.16 1.06 0.96 0.98 1.06 1.14 1.21 1.23 1.30 1.36 1.44 1.49 1.48 1.39 1.37 1.29 1.16 1.07 1.07 1.08 1.04 1.01 1.01 0.96
0.18 0.19 0.22 0.36 0.42 0.42 0.42 0.32 0.31 0.42 0.55 0.63 0.64 0.65 0.86 0.87 0.95 1.01 1.07 1.19 1.20 1.07 1.00 1.02 1.07 1.10 1.09 1.18 1.37 1.38 1.49 1.57 1.44 1.36 1.26 1.15 1.11 1.19 1.24 1.11 0.97 0.94 0.92

GEFSMA_prec_meanprecacc_204.txt.gz
Total_Precipitation_Accumulation
1.02 0.93 0.94 1.09 1.06 1.09 1.25 1.37 1.22 1.17 1.18 1.12 1.06 1.03 1.00 0.92 0.92 0.91 1.14 1.32 1.56 1.98 2.38 2.37 2.06 1.63 1.50 1.68 1.71 1.74 1.75 1.86 2.12 2.27 2.31 2.34 2.22 2.19 1.92 1.58 1.30 1.17 1.10
1.06 1.08 0.98 1.05 1.20 1.25 1.25 1.27 1.25 1.18 1.15 1.18 1.15 1.18 1.18 0.99 1.00 0.99 1.08 1.11 1.17 1.47 2.05 2.42 2.19 1.82 1.72 1.77 1.72 1.77 1.77 1.80 1.99 2.18 2.39 2.45 2.39 2.34 1.95 1.56 1.42 1.32 1.29
1.06 1.08 0.97 1.00 1.16 1.36 1.33 1.27 1.22 1.22 1.09 1.07 1.19 1.27 1.27 1.17 1.14 1.15 1.11 1.10 1.02 1.17 1.56 2.10 2.25 2.08 2.01 2.08 1.89 1.84 1.88 2.03 1.92 2.03 2.34 2.48 2.43 2.25 1.87 1.56 1.37 1.39 1.42
1.07 1.16 1.08 1.04 1.20 1.39 1.54 1.59 1.44 1.37 1.26 1.20 1.29 1.30 1.26 1.31 1.28 1.23 1.18 1.21 1.21 1.08 1.15 1.43 1.80 2.11 2.24 2.33 2.11 1.96 1.79 1.67 1.62 1.72 1.93 2.24 2.37 2.09 1.88 1.70 1.51 1.43 1.47
1.01 1.21 1.29 1.24 1.27 1.43 1.49 1.50 1.52 1.43 1.41 1.36 1.26 1.23 1.20 1.32 1.39 1.21 1.18 1.20 1.32 1.28 1.17 1.01 1.14 1.40 1.82 2.41 2.52 2.12 1.90 1.68 1.46 1.46 1.59 1.83 2.11 2.02 1.88 1.76 1.57 1.43 1.47
1.22 1.37 1.46 1.44 1.45 1.51 1.50 1.61 1.80 1.62 1.46 1.47 1.35 1.22 1.16 1.21 1.29 1.29 1.29 1.25 1.32 1.29 1.20 1.03 1.00 0.86 1.11 1.74 2.24 2.07 2.05 1.91 1.57 1.42 1.48 1.56 1.73 1.86 1.73 1.72 1.70 1.54 1.50
1.44 1.56 1.66 1.69 1.63 1.55 1.61 1.78 2.15 2.04 1.68 1.53 1.56 1.42 1.26 1.20 1.28 1.25 1.30 1.38 1.31 1.26 1.31 1.21 1.04 0.93 0.82 0.91 1.38 1.83 1.96 2.07 1.86 1.59 1.47 1.51 1.59 1.72 1.64 1.57 1.67 1.63 1.54
1.54 1.60 1.81 1.92 1.86 1.84 1.94 1.97 2.22 2.36 2.09 1.89 1.89 2.05 1.82 1.59 1.27 1.04 1.10 1.18 1.20 1.27 1.28 1.31 1.19 1.03 0.98 0.91 0.77 1.17 1.55 1.80 1.95 1.82 1.65 1.56 1.55 1.63 1.60 1.51 1.52 1.71 1.66
1.73 1.70 1.82 2.01 1.98 1.94 1.99 2.17 2.47 2.76 2.67 2.41 2.22 2.36 2.10 1.83 1.69 1.20 0.97 1.03 1.13 1.24 1.29 1.38 1.36 1.24 1.17 1.18 0.97 0.82 1.01 1.35 1.83 1.98 1.90 1.70 1.60 1.62 1.63 1.57 1.50 1.64 1.84
1.65 1.66 1.79 1.99 2.13 2.21 2.26 2.32 2.34 2.69 2.92 2.74 2.59 2.30 2.01 1.87 1.97 1.73 1.24 1.01 1.08 1.13 1.21 1.25 1.36 1.40 1.35 1.30 1.20 0.82 0.74 0.97 1.62 2.21 2.28 2.00 1.76 1.63 1.62 1.65 1.56 1.59 1.75
1.75 1.66 1.71 1.79 1.83 1.92 2.04 2.16 2.24 2.47 2.64 2.77 2.75 2.55 2.30 2.14 1.72 1.69 1.69 1.44 1.19 0.99 1.02 1.17 1.35 1.40 1.40 1.32 1.33 0.99 0.75 0.65 0.96 1.65 2.15 2.30 2.15 1.93 1.79 1.66 1.55 1.54 1.57
1.72 1.63 1.57 1.66 1.69 1.70 1.84 1.95 2.04 2.28 2.46 2.58 2.64 2.54 2.43 2.37 2.11 1.87 1.69 1.65 1.50 1.18 1.01 1.03 1.13 1.25 1.32 1.31 1.20 1.17 0.94 0.69 0.66 0.93 1.35 1.86 2.12 2.09 2.00 1.85 1.74 1.63 1.64
1.35 1.35 1.27 1.33 1.45 1.51 1.70 1.77 1.71 1.76 1.95 2.17 2.35 2.37 2.35 2.26 2.22 2.15 2.00 1.83 1.61 1.27 1.14 1.01 0.98 1.13 1.19 1.31 1.31 1.41 1.05 0.81 0.70 0.71 0.87 1.14 1.42 1.65 1.83 1.96 2.03 2.03 2.02
1.03 1.00 0.99 1.01 1.08 1.16 1.38 1.60 1.58 1.59 1.66 1.77 1.86 2.10 2.20 2.15 2.17 2.00 1.89 1.91 1.72 1.45 1.25 1.02 0.91 0.95 1.01 1.14 1.46 1.57 1.06 0.92 0.76 0.74 0.79 0.82 0.94 1.06 1.31 1.61 1.82 2.00 2.12
0.80 0.77 0.80 0.89 0.95 0.94 1.04 1.17 1.35 1.43 1.50 1.58 1.61 1.76 1.87 1.93 1.91 1.77 1.79 1.86 1.74 1.48 1.31 1.17 1.07 0.99 0.97 1.02 1.32 1.26 1.09 1.04 0.94 0.86 0.80 0.78 0.78 0.79 0.92 1.10 1.27 1.43 1.54
0.71 0.71 0.68 0.70 0.76 0.78 0.87 0.98 1.05 1.15 1.23 1.39 1.56 1.70 1.72 1.75 1.78 1.70 1.68 1.81 1.80 1.57 1.34 1.16 1.04 1.01 1.09 1.06 1.23 1.12 1.19 1.27 1.00 0.87 0.81 0.80 0.74 0.68 0.62 0.67 0.80 0.92 1.00
0.55 0.56 0.59 0.65 0.66 0.67 0.69 0.71 0.77 0.83 0.89 1.00 1.07 1.21 1.41 1.59 1.66 1.66 1.71 1.77 1.82 1.68 1.42 1.29 1.07 1.09 1.24 1.20 1.19 1.13 1.21 1.26 1.03 0.91 0.78 0.74 0.73 0.68 0.65 0.61 0.62 0.67 0.74
0.48 0.49 0.55 0.58 0.58 0.64 0.66 0.66 0.66 0.69 0.78 0.86 0.86 0.88 0.99 1.21 1.38 1.51 1.60 1.62 1.69 1.68 1.54 1.52 1.44 1.23 1.20 1.20 1.31 1.38 1.31 1.27 1.23 1.20 1.06 0.85 0.76 0.71 0.68 0.65 0.59 0.56 0.57
0.59 0.62 0.62 0.65 0.62 0.64 0.64 0.65 0.68 0.70 0.72 0.77 0.81 0.82 0.89 0.98 1.15 1.24 1.35 1.46 1.54 1.67 1.66 1.49 1.54 1.48 1.28 1.24 1.28 1.36 1.42 1.51 1.39 1.33 1.38 1.20 0.97 0.86 0.79 0.74 0.66 0.61 0.59
0.53 0.56 0.64 0.72 0.79 0.84 0.82 0.79 0.78 0.76 0.71 0.72 0.79 0.86 0.88 0.88 1.00 1.21 1.34 1.42 1.46 1.57 1.70 1.64 1.58 1.55 1.40 1.32 1.33 1.36 1.48 1.58 1.58 1.38 1.29 1.24 1.17 1.04 0.91 0.83 0.75 0.71 0.70
0.45 0.46 0.55 0.64 0.73 0.82 0.87 0.88 0.74 0.63 0.63 0.68 0.69 0.70 0.78 0.85 0.87 1.03 1.19 1.43 1.45 1.57 1.65 1.72 1.66 1.51 1.38 1.32 1.29 1.29 1.38 1.57 1.62 1.59 1.49 1.30 1.18 1.01 0.90 0.87 0.86 0.84 0.80
0.40 0.42 0.46 0.44 0.47 0.51 0.68 0.69 0.57 0.46 0.51 0.61 0.68 0.70 0.70 0.72 0.74 0.79 0.82 1.07 1.27 1.39 1.50 1.53 1.59 1.48 1.36 1.31 1.39 1.40 1.35 1.39 1.50 1.52 1.39 1.44 1.40 1.21 1.06 0.93 1.00 1.05 1.02
0.37 0.39 0.34 0.30 0.32 0.36 0.42 0.41 0.47 0.47 0.49 0.54 0.62 0.71 0.76 0.74 0.79 0.88 0.85 0.88 0.97 1.04 1.17 1.30 1.35 1.31 1.30 1.26 1.35 1.40 1.38 1.31 1.24 1.33 1.31 1.37 1.43 1.32 1.18 1.07 1.07 1.04 1.03
0.34 0.41 0.35 0.32 0.36 0.34 0.35 0.40 0.44 0.45 0.57 0.64 0.63 0.63 0.75 0.81 0.87 1.02 1.01 1.07 1.00 0.90 0.89 0.94 1.09 1.16 1.12 1.22 1.31 1.48 1.55 1.42 1.32 1.34 1.32 1.24 1.22 1.19 1.11 1.10 1.11 0.97 0.92
0.28 0.26 0.29 0.44 0.44 0.41 0.48 0.46 0.39 0.45 0.57 0.65 0.60 0.63 0.74 0.84 0.99 1.10 1.14 1.16 1.06 0.96 0.99 1.07 1.15 1.22 1.24 1.30 1.37 1.44 1.49 1.48 1.40 1.37 1.29 1.16 1.08 1.08 1.09 1.06 1.03 1.03 0.97
0.20 0.21 0.24 0.38 0.44 0.46 0.47 0.36 0.34 0.44 0.56 0.64 0.65 0.65 0.87 0.88 0.96 1.01 1.07 1.19 1.21 1.07 1.00 1.02 1.08 1.10 1.10 1.18 1.38 1.39 1.50 1.58 1.45 1.38 1.29 1.17 1.13 1.21 1.26 1.12 0.98 0.95 0.92